Location: Aalen
(48.8330°N, 10.1000°E)
Time: 19:00:34
(UTC+02:00)

Transit 4A - Pass Details

Date: 05 August 2021
Orbit: 871 x 974 km, 66.8° (Epoch: 16 September)

Event Time Altitude Azimuth Distance (km) Brightness Sun altitude
Rises 02:55:42 0° 269° (W) 3,473 - -21.2°
Exits shadow 02:56:33 - 272° (W) 3,201 10.5 -21.2°
Reaches altitude 10° 02:58:51 10° 285° (WNW) 2,529 10.1 -21.0°
Maximum altitude 03:03:08 21° 333° (NNW) 1,883 9.9 -20.7°
Drops below altitude 10° 03:07:26 10° 21° (NNE) 2,531 11.4 -20.4°
Sets 03:10:37 0° 37° (NE) 3,477 12.4 -20.2°
